CAPE
389 304 159 23 104 56 17 40 0 2 3 4 11 9 0 0 0 0 1 26 100 184 369 576 1240 1443 1677 1804 2365 2274 2214 1967 2145 2002 1923 1896 1890 1963 1908 1971 1796 1771 1797 1833 1863 1673 1713 1613 1461
369 352 6 0 5 3 46 26 0 9 0 2 15 14 1 6 8 12 10 24 77 199 248 499 1513 1718 1661 1964 2268 2340 2098 2111 2079 2031 2069 2110 2041 1950 1861 1756 1725 1727 1785 1644 1725 1716 1620 1612 1564
538 131 3 16 0 5 44 94 105 27 33 40 2 1 0 5 8 6 0 30 122 190 383 739 1400 2014 1703 1830 2207 2421 2429 2089 2055 2121 2084 1963 1894 1731 1670 1628 1713 1695 1747 1953 1697 1799 1731 1600 1390
152 84 67 210 120 105 72 259 134 77 77 15 5 24 41 8 8 29 8 47 95 297 562 1078 1505 1500 1551 1620 1835 2018 1960 1950 1959 1823 1868 1933 1770 1671 1660 1680 1783 1764 2025 1883 1563 1541 1655 1606 1469
865 555 291 91 13 84 102 235 160 130 105 38 27 35 71 77 66 34 6 54 131 368 654 974 1867 1984 1791 1647 1624 1605 1794 1989 2014 1913 1839 1918 1743 1623 1626 1660 1796 1785 1952 1954 1685 1516 1407 1563 1481
31 455 133 64 74 73 212 324 246 133 104 61 41 35 66 125 104 116 82 85 285 620 958 1081 1482 1621 1647 1540 1604 1531 1656 1982 2024 1948 1866 1954 1847 1581 1548 1597 1666 1765 1876 1768 1747 1501 1536 1321 1353
7 29 61 21 79 231 229 316 209 171 91 66 47 26 140 187 225 195 136 163 411 1062 1237 1179 1009 1095 1454 1726 1524 1520 1749 1963 2071 2085 1956 1963 1895 1672 1632 1520 1548 1603 1626 1700 1689 1581 1477 1543 1482
139 106 32 63 114 328 431 307 287 164 250 121 58 37 111 218 217 185 280 284 760 1168 1162 1143 1003 1014 1341 1427 1507 1496 1736 1987 2054 2063 2048 1969 1822 1693 1693 1799 1736 1816 1679 1620 1642 1743 1481 1496 1753
170 2 0 6 114 224 491 442 394 318 192 112 147 58 75 122 256 232 329 377 818 1032 1026 995 1089 1205 1486 1340 1205 1678 1655 1941 2007 1825 1958 2230 1413 1305 1487 1700 1921 1623 1875 1790 1686 1712 1278 1764 2055
0 0 0 0 16 306 486 450 390 322 178 321 152 105 122 245 354 313 315 370 503 820 1005 1012 1016 1205 1189 1399 1116 1127 1002 1462 1556 1341 1221 1491 1215 929 496 1339 1972 1740 1738 1666 1914 1939 799 732 952
21 191 7 4 0 327 437 436 373 333 216 302 157 118 178 287 458 410 395 406 403 694 909 989 1078 1102 994 1165 756 819 854 924 905 773 739 801 1102 618 856 1204 1236 772 1196 1142 1497 1412 567 488 665
27 21 3 0 38 221 421 427 349 304 233 262 185 144 207 284 422 456 469 510 530 591 749 867 1065 993 669 595 724 699 597 489 483 375 337 353 624 703 697 820 877 780 729 888 991 1052 579 665 760
5 0 0 1 0 185 421 441 362 443 415 316 317 227 220 266 404 493 555 601 708 578 681 802 927 892 565 292 451 264 349 410 311 206 188 371 583 648 510 734 757 756 1094 1067 1157 637 667 877 892
0 0 0 0 0 216 501 487 438 465 393 566 459 414 324 308 396 478 593 626 647 612 663 726 784 751 547 227 168 150 167 295 301 272 299 633 565 410 731 695 914 863 751 991 805 851 921 917 1266
0 0 0 0 5 5 30 45 425 367 335 609 550 473 443 363 424 546 621 596 603 636 674 639 699 715 691 369 179 75 107 382 692 590 490 711 601 720 811 848 756 773 778 849 1042 603 785 287 105
0 0 0 0 0 0 0 0 66 336 420 604 631 550 476 393 552 532 568 570 534 615 609 609 721 594 651 487 255 164 254 684 818 578 559 682 660 813 699 655 692 810 1077 990 560 471 12 0 0
0 0 0 0 0 0 0 0 290 323 410 607 650 621 526 467 562 502 476 443 508 456 313 368 436 346 564 454 486 354 627 237 220 368 555 684 799 920 907 575 650 815 1014 906 647 226 5 0 0
0 0 0 0 0 0 0 0 359 350 304 357 537 621 590 590 575 492 474 400 408 256 194 314 333 379 415 521 642 418 228 212 362 483 618 626 829 1075 890 692 897 853 669 588 128 56 0 0 0
0 0 0 0 0 0 0 0 361 288 246 184 147 275 369 512 565 505 502 487 377 268 184 434 412 556 469 496 681 566 446 400 625 441 477 503 952 1158 962 527 738 463 551 491 73 0 0 0 0
0 0 0 0 0 0 0 0 250 272 317 259 168 124 145 112 85 133 296 502 423 132 119 333 516 505 544 519 698 685 527 497 501 718 392 831 979 1173 899 553 704 637 551 213 69 0 0 0 0
0 0 0 0 0 0 0 0 37 291 374 359 298 209 141 115 89 1 195 404 409 116 213 389 498 365 479 463 390 528 422 614 687 602 707 932 828 1136 969 621 540 591 587 113 0 0 0 0 0
0 0 0 0 0 0 0 0 0 38 215 234 251 230 197 128 113 69 93 317 326 144 277 389 471 466 346 300 508 547 495 533 613 792 752 631 783 1036 842 605 400 481 282 3 0 0 0 0 0
0 0 0 0 0 0 0 0 0 0 0 4 32 70 90 103 106 78 11 150 280 210 262 390 373 522 503 493 575 586 519 501 371 493 820 756 753 903 950 688 409 128 23 0 0 0 0 0 0
0 0 0 0 0 0 0 0 0 0 0 0 0 17 24 21 40 35 13 29 171 246 143 404 280 583 607 576 674 692 644 514 383 266 562 553 687 779 887 722 312 0 0 0 0 0 0 0 0
0 0 0 0 0 0 0 0 0 0 0 0 0 0 3 1 6 2 2 22 71 195 190 365 285 621 781 742 766 752 661 490 465 296 379 526 622 518 758 713 267 0 0 0 0 0 0 0 0
0 0 0 0 0 0 0 0 0 0 0 0 0 0 0 0 0 0 0 0 17 87 146 299 333 540 897 958 870 799 697 615 528 271 235 502 708 734 692 717 236 0 0 0 0 0 0 0 0
0 0 0 0 0 0 0 0 0 0 0 0 0 0 0 0 0 0 1 0 1 11 108 309 431 481 872 986 961 872 780 717 596 279 198 428 649 735 366 558 210 0 0 0 0 0 0 0 0
0 0 0 0 0 0 0 0 0 0 0 0 0 0 0 0 0 1 0 0 0 8 61 218 461 542 734 977 1024 978 881 793 693 555 332 392 404 471 347 320 119 0 0 0 0 0 0 0 0
0 0 0 0 0 0 0 0 0 0 0 0 0 0 0 0 0 0 3 0 0 15 24 239 522 557 709 890 923 1015 1057 1022 1008 888 670 385 165 58 164 294 116 22 0 0 0 0 0 0 0
0 0 0 0 0 0 0 0 0 0 0 0 0 0 0 0 0 0 0 0 1 14 37 314 573 640 614 970 948 847 839 826 990 1283 1062 636 233 117 73 227 117 73 7 0 8 0 0 0 0
CIN
-113 -61 -69 -142 -51 -93 -55 -40 0 -15 -27 -79 -32 -30 0 0 0 0 -16 -27 -36 -11 -10 -7 0 0 0 0 0 0 0 -1 -1 -4 -5 -7 -3 0 0 0 0 -1 0 0 0 0 0 -4 -6
-107 -60 -306 0 -65 -8 -53 -62 0 -74 -69 -62 -81 -65 -39 -52 0 0 -1 -80 -25 -13 -20 -10 0 0 0 0 0 0 0 0 0 -1 0 0 0 0 0 0 0 0 0 0 0 0 0 0 -4
-65 -148 -149 -106 -7 -118 -73 -78 -100 -120 -103 -88 -177 -42 0 -1 -40 0 0 -44 -7 -8 -13 -3 0 0 0 0 0 0 0 0 -1 0 0 -1 0 0 0 0 0 0 0 0 -2 0 0 0 -2
-162 -178 -185 -83 -74 -109 -119 -100 -136 -190 -113 -188 -151 -118 -87 -118 -122 -121 -62 -53 -28 -6 -7 0 0 0 0 0 0 0 0 -1 0 -4 -3 -2 -5 -3 0 0 0 -1 0 0 -14 -6 0 0 0
-102 -95 -41 -77 -134 -60 -81 -118 -170 -157 -149 -171 -178 -137 -130 -69 -116 -154 -29 -90 -66 -8 -9 -1 0 0 0 0 0 0 -2 0 0 0 -7 -4 -3 0 0 0 0 0 -1 -1 -6 -10 -7 -2 -4
-306 -31 -39 -86 -114 -98 -75 -102 -142 -172 -183 -217 -194 -194 -144 -108 -123 -103 -116 -89 -39 -9 -6 -1 0 0 0 0 0 -2 -8 0 0 -4 -9 -3 0 -2 -8 -5 -1 0 -3 -7 -6 -15 -9 -14 -17
-298 -204 -112 -101 -176 -73 -122 -116 -139 -208 -193 -221 -268 -245 -162 -103 -67 -81 -85 -75 -25 -1 -3 -3 -2 -1 0 0 0 -5 -2 0 0 -5 -6 -5 -1 -13 -15 -14 -12 -12 -16 -9 -15 -24 -16 -15 -33
-235 -192 -153 -79 -154 -58 -77 -116 -134 -173 -149 -218 -303 -253 -217 -151 -113 -79 -51 -44 -1 -1 -3 -9 -8 -5 -4 -1 -3 -7 -3 0 -3 -8 -9 -12 -14 -24 -23 -15 -19 -17 -23 -21 -24 -25 -23 -15 -25
-244 -182 0 -105 -92 -93 -91 -111 -115 -141 -231 -253 -231 -297 -272 -229 -121 -88 -18 -6 0 0 -6 -16 -12 -15 -12 -14 -22 -3 -9 -4 -9 -22 -17 -8 -55 -67 -56 -42 -22 -22 -25 -22 -27 -29 -40 -19 -29
0 0 0 0 -55 -118 -113 -129 -169 -187 -221 -137 -246 -334 -270 -150 -97 -105 -79 -54 -14 -1 0 -13 -19 -14 -24 -8 -45 -50 -71 -39 -45 -66 -78 -63 -88 -114 -136 -80 -15 -21 -22 -24 -28 -26 -63 -95 -107
-324 -173 -112 -131 0 -124 -123 -110 -139 -225 -236 -209 -301 -304 -256 -162 -89 -105 -92 -100 -130 -60 -17 -13 -23 -30 -46 -34 -109 -108 -112 -110 -114 -127 -139 -133 -102 -153 -136 -114 -92 -104 -85 -82 -76 -79 -129 -126 -139
-220 -259 -194 0 -132 -153 -134 -117 -151 -228 -191 -256 -305 -345 -277 -199 -145 -124 -95 -94 -97 -91 -76 -55 -34 -50 -113 -129 -131 -136 -152 -180 -184 -190 -177 -167 -146 -146 -159 -138 -122 -124 -143 -125 -124 -119 -147 -113 -99
-127 0 0 -36 0 -88 -114 -134 -150 -209 -181 -243 -268 -270 -267 -232 -158 -122 -123 -130 -106 -123 -111 -107 -80 -84 -152 -206 -173 -220 -196 -186 -210 -219 -206 -178 -158 -143 -158 -149 -128 -149 -126 -125 -115 -137 -132 -102 -92
0 0 0 0 0 -45 -88 -108 -114 -165 -193 -241 -286 -279 -254 -232 -187 -130 -101 -109 -126 -144 -145 -139 -130 -137 -162 -232 -257 -256 -239 -202 -199 -201 -198 -158 -157 -147 -146 -151 -102 -124 -158 -125 -132 -120 -99 -108 -88
0 0 0 0 -78 -26 -60 -128 -111 -155 -213 -238 -288 -273 -227 -202 -162 -160 -170 -182 -172 -177 -157 -167 -164 -159 -152 -210 -249 -275 -255 -179 -134 -159 -156 -144 -146 -117 -131 -130 -116 -116 -147 -132 -120 -128 -114 -164 -264
0 0 0 0 0 0 0 0 -127 -194 -209 -237 -265 -272 -218 -215 -196 -181 -187 -202 -202 -161 -172 -177 -141 -186 -178 -194 -240 -227 -192 -128 -109 -168 -175 -145 -147 -120 -127 -125 -123 -130 -110 -117 -133 -118 -168 0 0
0 0 0 0 0 0 0 0 -176 -192 -201 -245 -262 -249 -220 -194 -176 -196 -199 -220 -208 -211 -223 -204 -190 -223 -203 -203 -183 -196 -131 -218 -242 -222 -201 -164 -129 -116 -121 -140 -141 -128 -119 -115 -116 -165 -113 0 0
0 0 0 0 0 0 0 0 -200 -215 -227 -282 -285 -229 -198 -200 -242 -237 -231 -226 -219 -239 -238 -210 -217 -212 -224 -209 -154 -201 -231 -214 -196 -160 -178 -168 -142 -115 -129 -138 -125 -139 -131 -129 -197 -202 0 0 0
0 0 0 0 0 0 0 0 -217 -241 -247 -291 -283 -277 -230 -213 -246 -240 -231 -231 -227 -231 -246 -213 -202 -205 -215 -217 -157 -163 -167 -195 -164 -196 -165 -173 -154 -127 -134 -150 -122 -167 -127 -128 -240 0 0 0 0
0 0 0 0 0 0 0 0 -178 -222 -317 -343 -328 -304 -269 -293 -314 -317 -247 -215 -266 -337 -308 -256 -234 -233 -240 -218 -152 -143 -185 -188 -162 -155 -194 -141 -141 -123 -159 -152 -126 -131 -142 -206 -220 0 0 0 0
0 0 0 0 0 0 0 0 -244 -203 -226 -261 -272 -283 -274 -264 -320 -91 -300 -281 -289 -398 -367 -327 -298 -291 -256 -238 -250 -236 -258 -194 -160 -164 -130 -134 -150 -127 -133 -148 -157 -151 -162 -250 0 0 0 0 0
0 0 0 0 0 0 0 0 0 -88 -251 -277 -284 -294 -297 -284 -289 -361 -409 -331 -358 -414 -385 -344 -312 -287 -291 -306 -232 -187 -180 -153 -172 -128 -123 -169 -158 -149 -144 -163 -201 -203 -264 -47 0 0 0 0 0
0 0 0 0 0 0 0 0 0 0 0 -247 -341 -351 -328 -346 -345 -359 -436 -387 -395 -370 -420 -388 -384 -301 -285 -305 -219 -215 -195 -196 -254 -229 -131 -148 -180 -153 -144 -162 -226 -311 -352 0 0 0 0 0 0
0 0 0 0 0 0 0 0 0 0 0 0 0 -406 -402 -384 -376 -380 -452 -486 -420 -358 -433 -421 -452 -344 -315 -319 -267 -251 -218 -235 -275 -320 -217 -232 -222 -195 -163 -195 -279 0 0 0 0 0 0 0 0
0 0 0 0 0 0 0 0 0 0 0 0 0 0 -166 -55 -387 -177 -155 -510 -501 -460 -467 -456 -510 -408 -347 -330 -291 -274 -254 -279 -274 -313 -288 -258 -241 -279 -213 -234 -332 0 0 0 0 0 0 0 0
0 0 0 0 0 0 0 0 0 0 0 0 0 0 0 0 0 0 0 0 -545 -523 -485 -470 -534 -458 -370 -334 -314 -299 -287 -291 -281 -347 -352 -278 -254 -230 -249 -273 -374 0 0 0 0 0 0 0 0
0 0 0 0 0 0 0 0 0 0 0 0 0 0 0 0 0 0 -142 0 -108 -551 -579 -548 -542 -508 -426 -360 -322 -312 -319 -303 -333 -406 -392 -327 -277 -245 -373 -327 -395 0 0 0 0 0 0 0 0
0 0 0 0 0 0 0 0 0 0 0 0 0 0 0 0 0 -189 0 0 -40 -549 -568 -569 -542 -538 -533 -430 -361 -335 -341 -336 -333 -359 -406 -386 -392 -348 -414 -408 -461 0 0 0 0 0 0 0 0
0 0 0 0 0 0 0 0 0 0 0 0 0 0 0 0 0 0 -460 -31 -126 -506 -587 -621 -573 -552 -515 -492 -425 -359 -330 -312 -288 -306 -358 -421 -482 -556 -502 -444 -489 -586 0 0 0 0 0 0 0
0 0 0 0 0 0 0 0 0 0 0 0 0 0 0 0 0 0 0 -2 -393 -524 -588 -627 -611 -604 -579 -519 -471 -448 -402 -377 -316 -260 -333 -394 -486 -530 -552 -487 -513 -549 -580 0 -567 0 0 0 0
Wind_Speed
11 8 2 0 1 0 2 3 2 5 3 0 2 5 8 5 2 4 9 6 9 7 7 13 18 19 19 17 16 17 16 16 16 16 15 14 13 13 11 10 10 8 8 8 8 8 8 7 9
8 7 1 1 3 3 4 2 3 4 9 12 11 8 7 5 6 12 9 10 10 8 5 8 17 18 18 17 16 15 17 16 15 15 14 13 11 11 9 9 8 6 7 7 6 6 6 6 6
9 2 3 3 2 2 3 3 7 8 9 4 6 7 4 4 10 10 11 14 10 7 5 9 17 17 18 17 15 14 15 15 15 14 13 12 10 9 8 8 6 5 5 6 5 4 4 5 6
5 1 1 2 4 5 4 4 8 11 5 7 13 9 6 11 8 8 15 14 10 9 7 14 18 19 17 16 15 15 14 14 13 13 12 11 9 8 7 7 6 3 3 5 5 4 4 5 5
1 3 3 4 7 5 1 6 7 6 6 11 5 7 8 4 15 17 14 13 11 7 5 11 16 17 17 16 15 14 13 13 12 11 11 9 8 7 6 5 4 2 2 4 4 4 4 5 4
4 3 1 3 6 6 5 8 8 10 12 14 13 10 3 14 17 14 13 11 10 9 6 9 16 17 16 16 14 13 13 12 11 11 10 9 8 6 5 4 3 1 1 2 3 3 3 3 3
5 6 5 4 6 4 5 7 8 13 12 8 9 6 7 12 14 15 12 11 10 8 7 7 9 13 17 15 14 13 12 12 11 10 9 8 7 6 5 3 2 1 0 1 2 1 2 2 2
4 2 2 7 5 3 10 10 12 11 7 13 12 7 12 17 17 14 12 11 9 8 7 6 6 6 6 8 15 14 12 12 11 10 9 9 8 7 5 3 3 4 4 2 2 2 2 3 5
2 1 4 6 10 5 11 7 10 3 13 3 5 9 17 21 19 15 12 10 8 8 7 5 6 5 6 6 9 12 13 13 12 10 11 8 3 3 4 4 5 3 5 5 4 2 4 4 7
5 4 7 5 9 16 16 15 15 6 13 1 9 15 21 21 19 18 15 13 13 13 9 8 6 6 6 6 5 5 5 4 4 4 5 4 3 3 5 6 5 5 4 3 3 4 2 5 0
5 8 4 5 7 19 22 13 7 16 10 7 21 23 23 20 17 17 15 15 16 13 10 10 8 7 7 6 4 3 3 2 3 5 4 3 1 3 3 2 2 3 3 2 3 1 1 3 2
5 14 13 5 5 18 19 14 5 18 10 17 24 28 26 22 19 17 16 15 14 14 14 12 11 10 8 4 5 4 3 3 3 4 5 3 2 4 4 3 3 3 2 3 3 1 2 1 3
9 20 7 4 4 17 16 19 13 21 8 17 20 23 23 21 20 18 17 15 14 15 15 14 13 11 10 6 4 3 4 4 4 4 5 4 3 4 3 2 2 3 2 3 3 1 1 3 1
6 16 17 9 11 19 14 13 10 16 19 20 23 24 22 22 22 18 16 15 15 14 15 14 14 13 10 8 6 6 4 5 4 4 4 6 4 4 3 4 4 2 3 3 2 1 1 3 3
7 8 6 8 6 12 14 10 19 15 22 22 24 22 22 21 19 20 19 18 17 15 14 14 14 12 10 10 7 6 6 6 6 6 6 6 6 5 5 3 3 3 3 4 2 1 1 2 2
3 2 2 8 8 7 17 20 16 22 24 22 21 21 21 22 22 20 19 19 17 14 15 14 13 13 11 10 7 6 6 7 7 5 4 7 6 6 4 4 4 2 2 2 3 2 0 1 2
4 4 6 9 9 6 10 5 12 22 22 22 21 21 20 19 19 20 20 18 17 16 15 15 14 14 12 10 6 6 6 5 4 4 4 6 7 6 5 4 3 3 2 2 2 1 1 1 2
6 4 5 6 4 8 7 6 19 21 22 23 22 21 20 20 25 22 20 18 17 16 15 16 14 14 13 9 7 3 3 3 3 4 4 6 6 7 5 4 3 3 3 2 1 2 1 1 1
4 3 5 3 1 2 4 7 21 22 18 21 20 20 21 23 23 21 19 19 17 15 16 16 15 14 11 6 6 3 4 4 3 4 6 6 5 6 6 4 3 4 4 3 3 2 1 1 1
6 7 14 3 7 4 6 10 19 24 27 28 25 22 22 20 16 19 19 20 19 19 18 17 17 16 13 10 9 5 4 3 3 4 5 6 7 8 6 6 5 5 3 3 4 3 1 1 1
7 11 11 9 2 3 5 2 12 20 12 13 18 21 21 22 23 18 22 22 19 20 21 20 19 18 15 14 6 2 3 2 2 2 3 5 7 7 7 6 5 5 4 4 4 4 4 2 1
9 7 7 5 4 4 6 5 7 17 18 16 16 18 20 21 20 18 20 22 22 21 18 19 19 18 15 14 12 14 7 6 4 4 4 4 6 8 7 7 6 6 4 5 5 4 3 3 2
11 6 6 3 4 1 5 1 7 17 19 21 20 22 22 22 21 22 22 23 24 21 19 18 19 18 17 15 16 12 9 7 3 3 6 5 5 7 8 7 7 6 5 5 6 5 4 3 3
4 3 4 1 3 6 16 8 8 13 25 24 20 23 25 23 23 23 24 20 19 18 18 18 19 18 17 17 18 17 16 10 6 4 5 4 4 5 7 8 7 6 6 6 5 5 6 5 3
6 8 4 3 4 10 9 6 15 10 21 26 25 26 27 25 24 23 22 20 19 20 21 18 19 19 19 19 18 17 16 15 13 10 6 6 4 3 6 7 7 5 6 6 6 5 5 5 4
9 14 9 7 4 6 4 11 10 15 11 19 25 26 25 24 23 25 25 23 22 23 22 21 21 20 19 19 19 16 16 11 10 9 6 6 6 7 9 9 9 7 7 7 6 4 4 5 4
7 12 13 3 2 3 6 9 5 9 10 10 14 14 22 24 25 26 25 22 22 22 24 24 22 22 20 21 17 16 14 14 11 10 9 7 7 7 9 11 10 8 8 8 7 5 6 5 5
15 9 4 2 11 13 5 8 8 11 17 11 13 13 20 23 23 24 23 23 20 20 20 21 22 24 22 22 18 16 16 15 12 10 11 9 8 9 10 10 10 8 8 8 8 5 5 6 4
5 8 3 7 7 7 3 12 8 10 13 13 15 17 21 23 24 24 22 20 23 21 20 22 21 21 20 19 18 17 15 14 12 12 11 12 10 10 10 11 11 10 10 9 9 7 7 7 6
15 11 9 7 13 8 13 12 2 18 14 11 11 13 18 22 22 19 21 20 19 20 19 21 21 21 21 20 19 19 17 14 14 14 12 12 13 11 11 11 11 11 11 10 11 10 8 9 8
Wind_Direction
152 148 167 225 352 99 313 270 134 111 86 280 77 114 108 45 58 144 143 165 128 123 131 140 140 134 127 123 119 117 117 117 115 115 116 112 109 104 105 105 97 91 84 80 86 81 81 96 117
139 157 338 308 67 31 294 263 149 77 132 117 95 106 50 73 71 121 126 151 137 133 128 131 136 134 130 126 125 128 125 124 121 116 117 114 112 111 112 106 100 99 95 91 84 81 85 79 99
156 333 18 42 41 213 240 198 100 121 146 94 108 73 70 90 111 132 129 139 135 128 128 142 139 134 134 131 132 129 128 125 121 123 121 120 120 119 121 116 114 103 94 96 82 84 80 80 78
174 30 51 47 310 269 265 147 126 143 105 65 107 75 89 117 134 133 141 138 137 138 149 146 144 142 141 138 135 131 130 124 129 132 128 133 132 134 139 133 127 117 93 90 80 63 54 60 71
148 32 343 343 295 261 238 139 132 129 88 118 94 94 99 109 114 129 140 146 145 140 155 148 150 148 147 146 143 143 136 139 142 137 141 144 145 148 144 141 138 122 66 77 77 70 54 54 55
78 72 320 280 284 292 128 159 147 100 103 105 102 103 67 126 131 143 150 151 150 147 149 160 155 153 155 154 151 152 151 152 150 152 152 158 164 163 164 167 167 151 66 60 66 81 78 85 87
121 136 193 225 277 255 152 175 149 134 136 121 139 88 123 141 149 152 151 149 152 151 156 155 159 165 163 164 160 163 161 162 165 163 165 181 180 187 195 193 204 232 310 73 81 127 116 110 117
104 101 231 178 245 271 149 175 160 148 129 123 144 156 164 168 158 151 147 148 153 160 161 153 159 162 165 171 172 172 173 175 175 176 185 193 200 211 219 220 278 266 248 204 186 218 140 120 164
123 108 218 206 182 175 154 154 164 123 138 174 177 143 154 154 150 146 145 150 159 168 171 158 161 161 164 163 184 182 186 188 187 194 203 211 209 249 277 269 245 259 236 213 188 193 85 116 178
158 194 237 192 150 166 178 170 168 132 159 150 103 120 148 152 154 156 160 167 174 176 179 177 168 169 159 175 195 179 200 190 195 207 217 213 210 242 268 257 257 254 208 247 190 191 44 91 61
199 225 259 200 184 164 173 190 177 144 187 188 151 147 159 162 165 164 171 175 180 178 178 185 178 173 173 185 186 188 204 196 206 215 228 241 178 256 277 287 315 313 335 290 308 305 91 132 180
249 245 244 343 155 166 173 162 170 175 190 167 158 159 162 169 173 173 177 178 181 180 185 184 184 180 188 180 192 195 199 204 213 205 222 236 217 246 245 222 207 237 249 259 262 299 311 159 161
238 258 275 188 143 178 156 181 182 199 150 151 151 161 169 172 177 181 183 182 180 186 187 188 184 187 193 189 186 189 205 208 220 201 199 214 228 244 241 243 183 230 217 200 215 256 313 327 350
229 244 258 274 167 172 171 192 159 209 153 158 162 170 177 177 184 183 181 186 188 187 192 186 190 193 190 196 184 202 207 211 209 218 202 207 207 243 243 188 201 239 223 181 174 232 331 295 283
247 266 298 264 246 169 194 214 199 177 163 167 171 172 178 189 184 187 188 187 187 192 188 188 190 190 191 197 196 198 211 207 219 220 196 201 197 199 208 161 197 215 210 156 143 97 351 326 17
261 81 284 277 178 229 178 212 200 166 166 176 177 174 183 193 187 192 193 190 189 188 189 189 191 191 192 197 198 206 208 216 216 203 193 198 195 187 191 189 212 206 182 157 140 119 39 24 51
343 219 222 301 179 171 180 198 167 169 174 176 180 182 188 190 197 196 197 191 187 189 187 192 193 190 192 199 195 209 202 199 200 191 191 193 184 190 189 198 203 187 166 148 141 103 160 358 343
198 202 244 234 276 182 195 184 162 172 180 181 182 186 189 195 200 198 196 193 188 189 189 193 192 189 189 191 196 204 199 210 197 202 201 195 186 181 190 196 188 164 152 159 152 137 61 159 263
190 230 248 133 207 75 264 177 176 176 185 187 188 185 192 204 200 196 195 192 189 189 190 191 195 194 182 178 184 188 206 184 193 201 204 198 191 189 183 185 182 186 183 183 173 134 163 319 15
190 226 259 300 213 191 221 203 187 179 195 192 188 190 194 195 186 200 197 195 190 190 191 193 196 193 187 187 193 190 180 203 171 181 190 192 184 197 180 177 191 181 168 176 181 155 149 235 105
198 201 241 241 16 220 118 1 179 205 221 199 204 200 200 195 191 182 194 199 198 195 193 193 194 194 193 185 173 110 95 77 129 169 182 199 194 197 179 185 179 191 178 185 187 172 160 160 4
239 194 247 256 58 237 124 243 195 199 212 210 204 206 207 206 207 199 193 195 198 199 195 194 193 195 194 183 186 199 188 188 194 186 199 194 196 189 181 177 183 186 187 179 179 172 145 127 165
243 183 196 199 203 158 222 122 248 175 209 216 207 208 210 209 204 205 200 202 202 194 191 191 190 194 191 189 194 196 198 201 176 168 185 200 201 192 184 175 184 186 190 175 166 160 162 157 145
178 309 28 38 138 238 247 168 245 195 202 211 211 210 209 206 209 209 213 200 201 198 191 189 188 197 192 192 195 196 198 192 188 180 198 195 191 190 188 177 186 188 178 169 176 178 176 174 141
132 107 272 283 198 231 220 193 229 204 208 210 204 211 209 204 205 210 210 202 196 196 194 190 190 195 193 194 196 196 199 196 199 194 197 174 177 175 193 176 185 185 178 176 167 167 177 176 169
194 185 161 198 207 233 153 232 233 215 225 215 217 211 208 203 203 207 208 204 199 195 194 190 190 194 191 193 198 198 199 198 200 197 192 195 189 197 184 190 189 179 169 172 171 177 176 180 189
193 196 192 134 184 15 226 277 304 211 235 237 214 202 208 205 201 206 209 206 201 196 194 193 191 195 192 195 197 197 197 199 194 194 196 189 189 193 187 189 184 175 179 178 175 178 183 181 189
187 172 158 355 219 239 253 249 220 193 216 224 230 201 211 208 203 208 207 205 201 200 199 195 195 194 191 192 195 196 198 200 193 189 194 189 189 192 182 184 185 176 182 182 178 180 182 186 186
179 199 201 158 159 212 211 252 182 205 211 211 218 210 210 204 205 205 209 203 202 197 190 196 194 195 196 193 195 198 200 199 193 195 196 192 184 189 184 184 184 182 186 184 187 189 181 193 191
205 197 159 157 222 246 233 233 331 191 202 204 217 211 219 215 214 203 204 204 199 196 190 192 193 194 198 194 192 198 197 194 195 203 199 192 193 191 186 183 185 188 192 190 194 194 192 194 198